Ashland, WI

12:13 AM CST on February 25, 2017 (GMT -0600)
Kennedy Memorial

Weather History for KASX - February, 2012

Change the Weather History Date:

Tuesday, February 21, 2012

  Actual Average Record
Temperature  
Mean Temperature 32 °F -  
Max Temperature 37 °F 33 °F 55 °F (2017)
Min Temperature 28 °F 12 °F -21 °F (1963)
Degree Days  
Heating Degree Days 32    
Moisture  
Dew Point 29 °F    
Average Humidity 84    
Maximum Humidity 100    
Minimum Humidity 67    
Precipitation  
Precipitation 0.06 in - - ()
Sea Level Pressure  
Sea Level Pressure 29.43 in    
Wind  
Wind Speed 8 mph (SW)    
Max Wind Speed 17 mph    
Max Gust Speed 26 mph    
Visibility 5 miles    
Events Snow    
Averages and records for this station are not official NWS values.
T = Trace of Precipitation, MM = Missing Value Source: NWS Daily Summary

Daily Weather History Graph

Daily Weather History Graph

Search for Another Location

Airport or City:

Trip Planner

Search our weather history database for the weather conditions in past years. The results will help you decide how hot, cold, wet, or windy it might be!

Date:

Astronomy

Feb. 21, 2012 Rise Set
Actual Time 6:58 AM CST 5:37 PM CST
Civil Twilight 6:27 AM CST 6:07 PM CST
Nautical Twilight 5:52 AM CST 6:43 PM CST
Astronomical Twilight 5:17 AM CST 7:18 PM CST
Moon 6:25 AM CST (2/21) 5:47 PM CST (2/21)
Length of Visible Light 11h 40m
Length of Day
10h 39m
Waning Crescent, 0% of the Moon is Illuminated
Feb 21
Waning Crescent
Feb 21
New
Feb 29
First Quarter
Mar 8
Full
Mar 14
Last Quarter

Hourly Weather History & Observations

Time (CST) Temp. Windchill Dew Point Humidity Pressure Visibility Wind Dir Wind Speed Gust Speed Precip Events Conditions
12:53 AM 33.1 °F 27.7 °F 27.0 °F 78% 29.74 in 10.0 mi South 5.8 mph - N/A   Overcast
1:53 AM 34.0 °F 26.6 °F 24.1 °F 67% 29.68 in 10.0 mi South 9.2 mph - N/A   Overcast
2:53 AM 33.1 °F 27.7 °F 24.1 °F 70% 29.63 in 10.0 mi South 5.8 mph - N/A   Overcast
3:53 AM 34.0 °F 27.2 °F 25.0 °F 70% 29.59 in 10.0 mi South 8.1 mph 16.1 mph N/A   Overcast
4:26 AM 33.8 °F 28.6 °F 26.6 °F 75% 29.55 in 10.0 mi South 5.8 mph - N/A   Overcast
4:53 AM 33.1 °F 26.9 °F 26.1 °F 75% 29.56 in 10.0 mi South 6.9 mph - N/A   Overcast
5:53 AM 32.0 °F 27.5 °F 27.0 °F 82% 29.53 in 4.0 mi South 4.6 mph - 0.00 in Snow Light Snow
6:07 AM 32.0 °F 28.7 °F 28.4 °F 87% 29.50 in 1.8 mi South 3.5 mph - 0.00 in Snow Light Snow
6:53 AM 30.9 °F 27.5 °F 28.9 °F 92% 29.51 in 1.5 mi South 3.5 mph - 0.01 in Snow Light Snow
7:06 AM 30.2 °F - 30.2 °F 100% 29.48 in 2.5 mi Calm Calm - 0.00 in Snow Light Snow
7:18 AM 30.2 °F - 28.4 °F 93% 29.47 in 4.0 mi Calm Calm - 0.00 in Snow Light Snow
7:53 AM 32.0 °F - 28.9 °F 88% 29.49 in 4.0 mi Calm Calm - 0.00 in   Overcast
8:03 AM 32.0 °F - 28.4 °F 87% 29.46 in 6.0 mi Calm Calm - N/A   Overcast
8:53 AM 33.1 °F 28.7 °F 28.9 °F 85% 29.47 in 6.0 mi South 4.6 mph - N/A   Overcast
9:06 AM 33.8 °F 30.8 °F 28.4 °F 81% 29.43 in 4.0 mi Variable 3.5 mph - 0.00 in Snow Light Snow
9:11 AM 33.8 °F 28.6 °F 28.4 °F 81% 29.43 in 2.5 mi South 5.8 mph - 0.00 in Snow Light Snow
9:22 AM 33.8 °F 29.6 °F 28.4 °F 81% 29.42 in 3.0 mi South 4.6 mph - 0.00 in Snow Light Snow
9:29 AM 33.8 °F 27.0 °F 28.4 °F 81% 29.42 in 3.0 mi South 8.1 mph - 0.00 in Snow Light Snow
9:36 AM 33.8 °F 27.0 °F 28.4 °F 81% 29.42 in 2.0 mi South 8.1 mph - 0.00 in Snow Light Snow
9:43 AM 33.8 °F 27.7 °F 30.2 °F 87% 29.41 in 1.0 mi South 6.9 mph - 0.00 in Snow Light Snow
9:53 AM 33.1 °F 26.1 °F 30.0 °F 89% 29.44 in 2.0 mi South 8.1 mph - 0.00 in Snow Light Snow
9:57 AM 33.8 °F 27.7 °F 30.2 °F 87% 29.41 in 1.5 mi South 6.9 mph - 0.00 in Snow Light Snow
10:06 AM 33.8 °F 28.6 °F 30.2 °F 87% 29.41 in 0.8 mi South 5.8 mph - 0.00 in Snow Light Snow
10:12 AM 33.8 °F 29.6 °F 30.2 °F 87% 29.41 in 1.5 mi South 4.6 mph - 0.00 in Snow Light Snow
10:20 AM 33.8 °F 28.6 °F 30.2 °F 87% 29.40 in 1.0 mi South 5.8 mph - 0.01 in Snow Light Snow
10:29 AM 33.8 °F 27.7 °F 30.2 °F 87% 29.40 in 2.0 mi South 6.9 mph - 0.01 in Snow Light Snow
10:34 AM 33.8 °F 28.6 °F 30.2 °F 87% 29.40 in 1.8 mi South 5.8 mph - 0.01 in Snow Light Snow
10:53 AM 34.0 °F 28.8 °F 32.0 °F 92% 29.42 in 1.8 mi South 5.8 mph - 0.01 in Snow Light Snow
11:03 AM 35.6 °F 29.9 °F 33.8 °F 93% 29.39 in 2.5 mi SSW 6.9 mph - 0.00 in Snow Light Snow
11:11 AM 33.8 °F 27.0 °F 32.0 °F 93% 29.39 in 4.0 mi South 8.1 mph - 0.00 in   Overcast
11:26 AM 35.6 °F 28.0 °F 32.0 °F 87% 29.39 in 8.0 mi SSW 10.4 mph - 0.00 in   Overcast
11:39 AM 35.6 °F 29.2 °F 32.0 °F 87% 29.38 in 6.0 mi SSW 8.1 mph - 0.00 in Snow Light Snow
11:53 AM 35.1 °F 26.9 °F 30.9 °F 85% 29.41 in 9.0 mi SW 11.5 mph - 0.00 in   Overcast
12:09 PM 35.6 °F 26.6 °F 30.2 °F 81% 29.38 in 10.0 mi WSW 13.8 mph 20.7 mph N/A   Overcast
12:49 PM 33.8 °F 24.8 °F 28.4 °F 81% 29.37 in 10.0 mi WSW 12.7 mph 19.6 mph N/A   Overcast
12:53 PM 34.0 °F 25.5 °F 28.9 °F 82% 29.39 in 10.0 mi WSW 11.5 mph 19.6 mph N/A   Overcast
1:53 PM 35.1 °F 25.5 °F 28.0 °F 76% 29.39 in 10.0 mi WSW 15.0 mph 19.6 mph N/A   Overcast
2:40 PM 37.4 °F 28.5 °F 28.4 °F 70% 29.35 in 10.0 mi West 15.0 mph 24.2 mph N/A   Overcast
2:53 PM 37.0 °F 27.4 °F 28.0 °F 70% 29.38 in 10.0 mi WSW 17.3 mph 24.2 mph N/A   Overcast
3:39 PM 35.6 °F 28.0 °F 28.4 °F 75% 29.36 in 1.8 mi WSW 10.4 mph - 0.00 in Snow Light Snow
3:56 PM 33.8 °F 27.0 °F 30.2 °F 87% 29.35 in 3.0 mi WSW 8.1 mph - 0.00 in Snow Light Snow
4:38 PM 35.6 °F 25.5 °F 30.2 °F 81% 29.35 in 10.0 mi WSW 17.3 mph 24.2 mph 0.00 in   Overcast
4:45 PM 35.6 °F 25.5 °F 30.2 °F 81% 29.35 in 10.0 mi WSW 17.3 mph 26.5 mph 0.00 in   Overcast
4:53 PM 36.0 °F 27.5 °F 30.9 °F 82% 29.38 in 10.0 mi WSW 12.7 mph 25.3 mph 0.00 in   Overcast
5:53 PM 33.1 °F 23.4 °F 30.9 °F 92% 29.39 in 2.5 mi WSW 13.8 mph 23.0 mph 0.00 in Snow Light Snow
6:01 PM 33.8 °F 25.3 °F 30.2 °F 87% 29.36 in 3.0 mi WSW 11.5 mph 25.3 mph 0.00 in Snow Light Snow
6:13 PM 33.8 °F 23.9 °F 30.2 °F 87% 29.37 in 2.0 mi WSW 15.0 mph 24.2 mph 0.01 in Snow Light Snow
6:26 PM 33.8 °F 23.9 °F 30.2 °F 87% 29.37 in 1.5 mi WSW 15.0 mph 24.2 mph 0.01 in Snow Light Snow
7:27 PM 32.0 °F 22.5 °F 30.2 °F 93% 29.37 in 3.0 mi WSW 12.7 mph - 0.01 in Snow Light Snow
7:40 PM 32.0 °F 21.2 °F 28.4 °F 87% 29.37 in 2.5 mi WSW 16.1 mph 23.0 mph 0.01 in Snow Light Snow
7:51 PM 33.8 °F 23.5 °F 28.4 °F 81% 29.38 in 6.0 mi WSW 16.1 mph 25.3 mph 0.01 in Snow Light Snow
7:53 PM 33.1 °F 22.6 °F 28.9 °F 85% 29.40 in 7.0 mi WSW 16.1 mph 24.2 mph 0.01 in Snow Light Snow
8:53 PM 32.0 °F 20.8 °F 27.0 °F 82% 29.41 in 5.0 mi West 17.3 mph 24.2 mph 0.00 in Snow Light Snow
9:48 PM 30.2 °F 19.8 °F 26.6 °F 86% 29.39 in 1.8 mi WSW 13.8 mph - 0.00 in Snow Light Snow
9:53 PM 30.0 °F 20.5 °F 27.0 °F 88% 29.42 in 1.8 mi WSW 11.5 mph - 0.00 in Snow Light Snow
10:15 PM 30.2 °F 20.2 °F 26.6 °F 86% 29.39 in 3.0 mi West 12.7 mph 21.9 mph 0.00 in Snow Light Snow
10:22 PM 30.2 °F 20.8 °F 26.6 °F 86% 29.39 in 1.8 mi West 11.5 mph 20.7 mph 0.00 in Snow Light Snow
10:48 PM 30.2 °F 20.8 °F 26.6 °F 86% 29.39 in 2.0 mi West 11.5 mph - 0.01 in Snow Light Snow
10:53 PM 30.0 °F 19.5 °F 27.0 °F 88% 29.42 in 1.8 mi West 13.8 mph - 0.01 in Snow Light Snow
11:03 PM 28.4 °F 18.0 °F 26.6 °F 93% 29.39 in 0.8 mi West 12.7 mph - 0.00 in Snow Light Snow
11:28 PM 28.4 °F 18.0 °F 26.6 °F 93% 29.38 in 1.0 mi WSW 12.7 mph - 0.02 in Snow Light Snow
11:53 PM 28.9 °F 19.2 °F 27.0 °F 92% 29.42 in 1.2 mi WSW 11.5 mph - 0.02 in Snow Light Snow